MET'MAP v2.0
soon released !

Expected late october,
this new version will be
more efficient, smarter,
and hosted on a brand new
server x3 powerfull...
...and still free !


Not compatible ?
Try the mobile version !

LOG IN : | Subscribe | Disclaimer | Who is Orbifly ? |
ICAO code :

TAF - LFQB Troyes Barberey - 10 Apr 2020 15:40 UTC
Data Sources :     NOAA   


- Airport Elevation : 388 ft
- IATA code : QYR
- No reported NOTAMs.


LFQB - Troyes Barberey

Latest METAR recorded : 2020/04/10 13:30 LFQB 101330Z AUTO 05006KT 320V090 CAVOK 25/06 Q1021
NO TAF


MET'MAP, your aeronautical weather chart ! - Copyright ORBIFLY December 2007

Programming & Development : Alexandra Zaïnal
Co-Developer : Marc-Olivier Méhu
Technical & hardware support : Manuel Goepfert
Concept & Financing : Baudouin d'Aumeries